EW9605 Weather Reports


Display with metric or nautical units.
time (UTC)temp
F
wind
direction
speed
MPH
gust
MPH
rain 1hr
in
rain 24hr
in
rain mn
in
humidity
%
barometer
mb
20260831232116 79 89 2.0 6.0 0.00 0.00 0.02 91 1015.1
20260831231643 79 44 1.0 3.0 0.00 0.00 0.02 91 1015.1
20260831231120 80 43 5.0 9.0 0.00 0.00 0.02 91 1015.1
20260831230636 80 57 6.0 8.0 0.00 0.00 0.02 90 1015.0
20260831230522 80 60 6.0 10.0 0.00 0.00 0.02 90 1015.0
20260831230059 80 64 5.0 9.0 0.00 0.00 0.02 89 1015.1
20260831225515 80 64 5.0 9.0 0.00 0.00 0.02 90 1015.1
20260831225041 80 96 5.0 10.0 0.00 0.00 0.02 89 1014.9
20260831224518 80 81 5.0 9.0 0.00 0.00 0.02 89 1014.9
20260831224025 80 87 5.0 8.0 0.00 0.00 0.02 89 1014.9
20260831223621 80 94 2.0 6.0 0.00 0.00 0.02 88 1014.8
20260831223038 79 99 5.0 10.0 0.00 0.00 0.02 89 1014.8
20260831222524 80 72 6.0 11.0 0.00 0.00 0.02 88 1014.8
20260831222041 80 94 6.0 10.0 0.00 0.00 0.02 89 1014.8
20260831221517 79 87 7.0 11.0 0.00 0.00 0.02 89 1014.7
20260831221024 80 101 3.0 7.0 0.00 0.00 0.02 90 1014.5
20260831220521 80 91 6.0 9.0 0.00 0.00 0.02 89 1014.6
20260831220017 80 99 8.0 14.0 0.00 0.00 0.02 90 1014.6
20260831215523 80 70 9.0 14.0 0.00 0.00 0.02 89 1014.4
20260831215019 80 98 9.0 13.0 0.00 0.01 0.02 88 1014.3
20260831214515 81 108 12.0 19.0 0.00 0.01 0.02 86 1014.4
20260831214022 82 92 8.0 21.0 0.00 0.01 0.02 85 1014.2
20260831213517 82 57 8.0 13.0 0.00 0.02 0.02 82 1013.9
20260831213024 82 59 0.0 4.0 0.00 0.04 0.02 80 1013.7
20260831212520 82 0.0 0.0 0.00 0.04 0.02 81 1013.6
20260831212016 82 0.0 0.0 0.00 0.05 0.02 81 1013.5
20260831211522 82 2 0.0 2.0 0.00 0.06 0.02 80 1013.7
20260831211017 82 0.0 0.0 0.00 0.07 0.02 81 1013.7
20260831210524 82 324 0.0 6.0 0.00 0.08 0.02 82 1013.6
20260831210020 82 0.0 0.0 0.00 0.08 0.02 81 1013.7
20260831205537 82 0.0 0.0 0.00 0.09 0.02 84 1013.6
20260831205024 82 0.0 0.0 0.00 0.09 0.02 84 1013.6
20260831204520 82 312 0.0 1.0 0.00 0.09 0.02 85 1013.6
20260831204016 82 0.0 0.0 0.00 0.48 0.02 84 1013.8
20260831203525 82 0.0 0.0 0.00 0.48 0.02 84 1013.7
20260831203020 82 312 0.0 1.0 0.00 0.48 0.02 82 1013.9
20260831202525 83 0.0 0.0 0.00 0.48 0.02 83 1013.8
20260831173020 91 0.0 0.0 0.00 1.64 0.00 74 1015.0
20260831172516 90 0.0 0.0 0.00 1.64 0.00 75 1015.1